This is the latest recevied weather packets stored in our database for station/object W3BRL. If no packets are shown the sender has not sent any weather packets the latest 10 day(s).
| Time | Temp. | Humidity | Pressure | Rain* | Wind** | Luminosity | Snow |
|---|---|---|---|---|---|---|---|
| 1777915822 | 20.56° C | 39% | 1007.1 hPa | 0 mm | - | 909 W/m² | - |
| 1777915518 | 20.56° C | 40% | 1006.9 hPa | 0 mm | - | 946 W/m² | - |
| 1777915215 | 20.56° C | 40% | 1007.3 hPa | 0 mm | - | 944 W/m² | - |
| 1777914912 | 20.56° C | 40% | 1007.1 hPa | 0 mm | - | 830 W/m² | - |
| 1777914608 | 20° C | 40% | 1007.1 hPa | 0 mm | - | 822 W/m² | - |
| 1777914304 | 20° C | 40% | 1007.5 hPa | 0 mm | - | 833 W/m² | - |
| 1777914002 | 20° C | 40% | 1007.6 hPa | 0 mm | - | 827 W/m² | - |
| 1777913698 | 20° C | 41% | 1007.6 hPa | 0 mm | - | 819 W/m² | - |
| 1777913395 | 20° C | 41% | 1007.7 hPa | 0 mm | - | 817 W/m² | - |
| 1777913092 | 20° C | 40% | 1007.8 hPa | 0 mm | - | 797 W/m² | - |
| 1777912788 | 20° C | 40% | 1007.8 hPa | 0 mm | - | 791 W/m² | - |
| 1777912484 | 20° C | 41% | 1008 hPa | 0 mm | - | 787 W/m² | - |
| 1777912181 | 19.44° C | 41% | 1007.7 hPa | 0 mm | - | 793 W/m² | - |
| 1777911877 | 19.44° C | 41% | 1008 hPa | 0 mm | - | 786 W/m² | - |
| 1777911573 | 19.44° C | 39% | 1008.1 hPa | 0 mm | - | 774 W/m² | - |
| 1777911270 | 18.89° C | 42% | 1008 hPa | 0 mm | - | 772 W/m² | - |
| 1777910967 | 19.44° C | 40% | 1008 hPa | 0 mm | - | 771 W/m² | - |
| 1777910665 | 18.89° C | 40% | 1008.4 hPa | 0 mm | - | 766 W/m² | - |
| 1777910361 | 18.89° C | 41% | 1008.4 hPa | 0 mm | - | 763 W/m² | - |
| 1777910057 | 18.89° C | 40% | 1008.5 hPa | 0 mm | - | 756 W/m² | - |
| 1777909755 | 18.89° C | 41% | 1008.3 hPa | 0 mm | - | 751 W/m² | - |
| 1777909452 | 18.89° C | 42% | 1008.4 hPa | 0 mm | - | 748 W/m² | - |
| 1777909150 | 18.33° C | 41% | 1008.6 hPa | 0 mm | - | 748 W/m² | - |
| 1777908848 | 18.33° C | 41% | 1008.5 hPa | 0 mm | - | 743 W/m² | - |
| 1777908544 | 18.33° C | 41% | 1008.7 hPa | 0 mm | - | 739 W/m² | - |
* Rain latest hour (hover to see other rain measurements)
** Current wind speed in m/s (hover to see current wind gust speed)